• în România
  • Lista ţărilor
  • Pe 7 zile
  • Temperatura apei
  • Hartă satelitară
  • Meteo pe hartă
  • Widget-uri
  • user-avatar
    Intrare

    Meteo pe oră la Kotonu

    Astăzi, 20 Februarie, Marţi

    Timp Temperatura Precipitaţii Vânt Presiune Umiditate
    00:00 +29°C° 0 mm 4 m/s 756 mmHg 81%
    01:00 +29°C° 0 mm 4 m/s 756 mmHg 81%
    02:00 +29°C° 0 mm 4 m/s 756 mmHg 82%
    03:00 +29°C° 0 mm 4 m/s 756 mmHg 83%
    04:00 +29°C° 0,1 mm 3 m/s 756 mmHg 83%
    05:00 +29°C° 0,1 mm 3 m/s 756 mmHg 84%
    06:00 +28°C° 0,1 mm 3 m/s 756 mmHg 85%
    07:00 +29°C° 0,3 mm 3 m/s 756 mmHg 82%
    08:00 +29°C° 0,3 mm 3 m/s 757 mmHg 80%
    09:00 +30°C° 0,3 mm 3 m/s 757 mmHg 77%
    10:00 +32°C° 0 mm 4 m/s 757 mmHg 71%
    11:00 +34°C° 0 mm 4 m/s 756 mmHg 65%
    12:00 +35°C° 0 mm 4 m/s 756 mmHg 59%
    13:00 +35°C° 0 mm 4 m/s 755 mmHg 57%
    14:00 +35°C° 0 mm 4 m/s 755 mmHg 56%
    15:00 +35°C° 0 mm 5 m/s 754 mmHg 55%
    16:00 +34°C° 0 mm 4 m/s 754 mmHg 60%
    17:00 +33°C° 0 mm 4 m/s 754 mmHg 65%
    18:00 +32°C° 0 mm 4 m/s 755 mmHg 70%
    19:00 +30°C° 0,1 mm 4 m/s 755 mmHg 72%
    20:00 +30°C° 0,1 mm 4 m/s 756 mmHg 75%
    21:00 +30°C° 0,1 mm 5 m/s 757 mmHg 78%
    22:00 +30°C° 0 mm 5 m/s 757 mmHg 79%
    23:00 +29°C° 0 mm 5 m/s 757 mmHg 81%

    Mâine, 21 Februarie, Miercuri

    Timp Temperatura Precipitaţii Vânt Presiune Umiditate
    00:00 +29°C° 0 mm 5 m/s 757 mmHg 82%
    01:00 +29°C° 0 mm 5 m/s 756 mmHg 83%
    02:00 +29°C° 0 mm 5 m/s 756 mmHg 83%
    03:00 +29°C° 0 mm 5 m/s 755 mmHg 84%
    04:00 +29°C° 0,1 mm 4 m/s 756 mmHg 84%
    05:00 +29°C° 0,1 mm 4 m/s 756 mmHg 84%
    06:00 +29°C° 0,1 mm 3 m/s 756 mmHg 84%
    07:00 +30°C° 0 mm 4 m/s 757 mmHg 79%
    08:00 +32°C° 0 mm 4 m/s 757 mmHg 73%
    09:00 +33°C° 0 mm 5 m/s 757 mmHg 67%
    10:00 +34°C° 0 mm 5 m/s 757 mmHg 62%
    11:00 +35°C° 0 mm 5 m/s 756 mmHg 56%
    12:00 +38°C° 0 mm 6 m/s 756 mmHg 50%
    13:00 +36°C° 0 mm 6 m/s 755 mmHg 51%
    14:00 +36°C° 0 mm 6 m/s 754 mmHg 52%
    15:00 +36°C° 0 mm 5 m/s 753 mmHg 52%
    16:00 +34°C° 0 mm 5 m/s 754 mmHg 59%
    17:00 +33°C° 0 mm 5 m/s 754 mmHg 66%
    18:00 +32°C° 0 mm 5 m/s 754 mmHg 73%
    19:00 +30°C° 0 mm 5 m/s 755 mmHg 75%
    20:00 +30°C° 0 mm 5 m/s 755 mmHg 77%
    21:00 +30°C° 0 mm 5 m/s 756 mmHg 79%
    22:00 +30°C° 0 mm 5 m/s 756 mmHg 79%
    23:00 +30°C° 0 mm 5 m/s 756 mmHg 80%

    Poimâine, 22 Februarie, Joi

    Timp Temperatura Precipitaţii Vânt Presiune Umiditate
    00:00 +29°C° 0 mm 5 m/s 756 mmHg 81%
    01:00 +29°C° 0 mm 5 m/s 755 mmHg 81%
    02:00 +29°C° 0 mm 5 m/s 755 mmHg 81%
    03:00 +29°C° 0 mm 5 m/s 754 mmHg 82%
    04:00 +29°C° 0,1 mm 5 m/s 754 mmHg 82%
    05:00 +29°C° 0,1 mm 5 m/s 755 mmHg 83%
    06:00 +29°C° 0,1 mm 5 m/s 755 mmHg 83%
    07:00 +29°C° 0,2 mm 5 m/s 756 mmHg 81%
    08:00 +30°C° 0,2 mm 5 m/s 756 mmHg 78%
    09:00 +30°C° 0,2 mm 5 m/s 757 mmHg 75%
    10:00 +32°C° 1,8 mm 5 m/s 757 mmHg 73%
    11:00 +32°C° 1,8 mm 5 m/s 756 mmHg 70%
    12:00 +33°C° 1,8 mm 4 m/s 756 mmHg 67%
    13:00 +32°C° 0,5 mm 4 m/s 755 mmHg 69%
    14:00 +32°C° 0,5 mm 4 m/s 754 mmHg 70%
    15:00 +31°C° 0,5 mm 3 m/s 754 mmHg 72%
    16:00 +30°C° 0,1 mm 3 m/s 754 mmHg 74%
    17:00 +30°C° 0,1 mm 4 m/s 754 mmHg 76%
    18:00 +29°C° 0,1 mm 4 m/s 754 mmHg 78%
    19:00 +29°C° 0 mm 4 m/s 755 mmHg 80%
    20:00 +29°C° 0 mm 4 m/s 755 mmHg 81%
    21:00 +29°C° 0 mm 4 m/s 756 mmHg 82%
    22:00 +29°C° 0 mm 4 m/s 755 mmHg 83%
    23:00 +29°C° 0 mm 4 m/s 755 mmHg 84%

    23 Februarie, Vineri

    Timp Temperatura Precipitaţii Vânt Presiune Umiditate
    00:00 +29°C° 0 mm 4 m/s 755 mmHg 85%
    01:00 +29°C° 0 mm 4 m/s 755 mmHg 85%
    02:00 +28°C° 0 mm 5 m/s 754 mmHg 85%
    03:00 +28°C° 0 mm 5 m/s 754 mmHg 85%
    04:00 +28°C° 0 mm 4 m/s 754 mmHg 85%
    05:00 +28°C° 0 mm 4 m/s 755 mmHg 86%
    06:00 +28°C° 0 mm 4 m/s 755 mmHg 86%
    07:00 +29°C° 0,5 mm 4 m/s 756 mmHg 79%
    08:00 +32°C° 0,5 mm 4 m/s 756 mmHg 72%
    09:00 +33°C° 0,5 mm 4 m/s 756 mmHg 65%
    10:00 +34°C° 0,4 mm 4 m/s 756 mmHg 63%
    11:00 +34°C° 0,4 mm 4 m/s 756 mmHg 62%
    12:00 +34°C° 0,4 mm 4 m/s 755 mmHg 60%
    13:00 +35°C° 0 mm 4 m/s 755 mmHg 58%
    14:00 +35°C° 0 mm 4 m/s 754 mmHg 57%
    15:00 +36°C° 0 mm 4 m/s 753 mmHg 55%
    16:00 +34°C° 0 mm 4 m/s 754 mmHg 60%
    17:00 +33°C° 0 mm 4 m/s 754 mmHg 65%
    18:00 +32°C° 0 mm 4 m/s 754 mmHg 69%
    19:00 +30°C° 0 mm 4 m/s 755 mmHg 72%
    20:00 +30°C° 0 mm 4 m/s 755 mmHg 74%
    21:00 +30°C° 0 mm 4 m/s 755 mmHg 76%
    22:00 +29°C° 0 mm 4 m/s 755 mmHg 77%
    23:00 +29°C° 0 mm 4 m/s 755 mmHg 77%

    24 Februarie, Sâmbătă

    Timp Temperatura Precipitaţii Vânt Presiune Umiditate
    00:00 +29°C° 0 mm 5 m/s 755 mmHg 78%
    01:00 +29°C° 0 mm 5 m/s 755 mmHg 78%
    02:00 +29°C° 0 mm 5 m/s 755 mmHg 79%
    03:00 +29°C° 0 mm 5 m/s 755 mmHg 79%
    04:00 +29°C° 0 mm 5 m/s 756 mmHg 80%
    05:00 +28°C° 0 mm 4 m/s 756 mmHg 81%
    06:00 +28°C° 0 mm 4 m/s 757 mmHg 81%
    07:00 +29°C° 0,9 mm 4 m/s 757 mmHg 76%
    08:00 +30°C° 0,9 mm 4 m/s 758 mmHg 71%
    09:00 +33°C° 0,9 mm 4 m/s 758 mmHg 66%
    10:00 +34°C° 0,5 mm 4 m/s 758 mmHg 62%
    11:00 +35°C° 0,5 mm 4 m/s 757 mmHg 57%
    12:00 +36°C° 0,5 mm 4 m/s 757 mmHg 53%
    13:00 +36°C° 0,5 mm 5 m/s 756 mmHg 53%
    14:00 +36°C° 0,5 mm 5 m/s 755 mmHg 54%
    15:00 +36°C° 0,5 mm 5 m/s 754 mmHg 54%
    16:00 +35°C° 0 mm 5 m/s 755 mmHg 59%
    17:00 +33°C° 0 mm 5 m/s 755 mmHg 64%
    18:00 +32°C° 0 mm 5 m/s 755 mmHg 68%
    19:00 +32°C° 0 mm 5 m/s 756 mmHg 71%
    20:00 +30°C° 0 mm 5 m/s 756 mmHg 74%
    21:00 +30°C° 0 mm 5 m/s 757 mmHg 77%
    22:00 +29°C° 0,3 mm 5 m/s 757 mmHg 78%
    23:00 +29°C° 0,3 mm 5 m/s 757 mmHg 79%

    25 Februarie, Duminică

    Timp Temperatura Precipitaţii Vânt Presiune Umiditate
    00:00 +29°C° 0,3 mm 5 m/s 757 mmHg 80%
    01:00 +29°C° 0,1 mm 5 m/s 756 mmHg 80%
    02:00 +29°C° 0,1 mm 5 m/s 756 mmHg 81%
    03:00 +29°C° 0,1 mm 5 m/s 756 mmHg 81%
    04:00 +29°C° 0,6 mm 5 m/s 756 mmHg 83%
    05:00 +29°C° 0,6 mm 5 m/s 757 mmHg 84%
    06:00 +28°C° 0,6 mm 4 m/s 757 mmHg 86%
    07:00 +29°C° 2 mm 4 m/s 757 mmHg 83%
    08:00 +30°C° 2 mm 4 m/s 758 mmHg 80%
    09:00 +30°C° 2 mm 4 m/s 758 mmHg 78%
    10:00 +30°C° 1,1 mm 4 m/s 758 mmHg 77%
    11:00 +30°C° 1,1 mm 5 m/s 757 mmHg 76%
    12:00 +30°C° 1,1 mm 5 m/s 757 mmHg 75%
    13:00 +32°C° 0 mm 5 m/s 756 mmHg 71%
    14:00 +33°C° 0 mm 4 m/s 756 mmHg 67%
    15:00 +33°C° 0 mm 4 m/s 755 mmHg 63%
    16:00 +33°C° 0 mm 4 m/s 756 mmHg 67%
    17:00 +32°C° 0 mm 4 m/s 756 mmHg 70%
    18:00 +30°C° 0 mm 4 m/s 756 mmHg 73%
    19:00 +30°C° 0 mm 4 m/s 757 mmHg 75%
    20:00 +29°C° 0 mm 4 m/s 757 mmHg 77%
    21:00 +29°C° 0 mm 4 m/s 758 mmHg 79%
    22:00 +29°C° 0 mm 5 m/s 757 mmHg 80%
    23:00 +29°C° 0 mm 5 m/s 757 mmHg 80%
    Arată mai mult